Home   Weather   47°09'N, 27°35'E   Past weeks
Flag for Romania

Past Weather in 47°09'N, 27°35'E, Romania — Yesterday and Last 2 Weeks

Now
45 °F

Clear.


Feels Like: 45 °F
Forecast: 62 / 39 °F
Wind: 2 mph from Southwest

Location: Iasi Airport

Current Time: Apr 21, 2019 at 1:31:07 am

Latest Report: Apr 21, 2019 at 12:30 am


Visibility: 10 mi

Pressure: 30.27 "Hg

Humidity: 57%

Dew Point: 30 °F

Location of 47°09'N, 27°35'ELocation

Past Weather in 47°09'N, 27°35'E — Graph

°F

47°09'N, 27°35'E Temperature Yesterday

Maximum temperature yesterday: 57 °F (at 3:30 pm)
Minimum temperature yesterday: 36 °F (at 5:00 am)
Average temperature yesterday: 48 °F

High & Low Weather Summary for the Past Weeks

 TemperatureHumidityPressure
High72 °F (Apr 7, 4:30 pm)94% (Apr 8, 5:00 pm)30.39 "Hg (Apr 8, 5:00 pm)
Low34 °F (Apr 16, 4:00 am)23% (Apr 7, 4:30 pm)29.68 "Hg (Apr 9, 5:00 pm)
Average49 °F69%30.00 "Hg
* Reported Apr 6 12:00 am — Apr 21 12:00 am, 47°09'N, 27°35'E. Weather by CustomWeather, © 2019

Note: Actual official high and low records may vary slightly from our data, if they occured in-between our weather recording intervals... More about our weather records

Advertising

47°09'N, 27°35'E Weather History for the Previous 24 Hours

Scroll right to see more
 ConditionsComfort  
Time TempWeatherWind HumidityBarometerVisibility
12:00 am
Sun, Apr 21
46 °FPassing clouds.2 mph50%30.27 "HgN/A
11:30 pm
Sat, Apr 20
46 °FClear.5 mph50%30.27 "Hg10 mi
11:00 pm48 °FClear.3 mph50%30.30 "Hg10 mi
10:30 pm48 °FClear.5 mph50%30.30 "Hg10 mi
10:00 pm50 °FClear.3 mph47%30.30 "Hg10 mi
9:30 pm52 °FClear.5 mph41%30.30 "Hg10 mi
9:00 pm52 °FClear.2 mph38%30.30 "Hg10 mi
8:30 pm54 °FClear.No wind33%30.30 "Hg10 mi
8:00 pm55 °FSunny.3 mph31%30.30 "Hg10 mi
7:30 pm55 °FSunny.3 mph33%30.30 "Hg10 mi
7:00 pm55 °FSunny.2 mph36%30.30 "Hg10 mi
6:30 pm57 °FPassing clouds.3 mph31%30.30 "HgN/A
6:00 pm55 °FSunny.5 mph38%30.33 "Hg10 mi
5:30 pm55 °FPassing clouds.6 mph33%30.33 "HgN/A
5:00 pm57 °FPassing clouds.8 mph33%30.33 "HgN/A
4:30 pm55 °FPassing clouds.7 mph38%30.33 "HgN/A
4:00 pm55 °FSunny.9 mph33%30.33 "Hg10 mi
3:30 pm57 °FSunny.10 mph27%30.33 "Hg10 mi
3:00 pm55 °FSunny.10 mph33%30.36 "Hg10 mi
2:30 pm55 °FPassing clouds.7 mph33%30.36 "HgN/A
2:00 pm55 °FSunny.10 mph33%30.36 "Hg10 mi
1:30 pm54 °FSunny.9 mph35%30.36 "Hg10 mi
1:00 pm54 °FSunny.12 mph38%30.36 "Hg10 mi
12:30 pm55 °FScattered clouds.12 mph36%30.36 "HgN/A
12:00 pm54 °FPassing clouds.9 mph38%30.39 "HgN/A
11:30 am54 °FPassing clouds.7 mph51%30.39 "HgN/A
10:30 am50 °FSunny.7 mph71%30.39 "Hg10 mi
10:00 am48 °FPassing clouds.6 mph76%30.39 "HgN/A
9:30 am45 °FPassing clouds.6 mph87%30.39 "Hg5 mi
9:00 am41 °FFog.3 mph93%30.39 "Hg2 mi
8:30 am39 °FFog.5 mph87%30.36 "Hg0 mi
8:00 am37 °FFog.5 mph93%30.36 "Hg0 mi
7:00 am36 °FFog.3 mph87%30.36 "Hg0 mi
6:30 am36 °FFog.3 mph93%30.36 "Hg0 mi
6:00 am36 °FFog.3 mph93%30.36 "Hg0 mi
5:30 am36 °FFog.2 mph87%30.36 "Hg0 mi
5:00 am36 °FFog.1 mph93%30.36 "Hg0 mi
4:30 am37 °FFog.2 mph93%30.36 "Hg0 mi
4:00 am39 °FFog.3 mph93%30.36 "Hg1 mi
3:30 am39 °FFog.3 mph93%30.36 "Hg1 mi
3:00 am41 °FFog.3 mph87%30.36 "Hg3 mi
2:00 am41 °FClear.5 mph87%30.36 "Hg10 mi
1:30 am41 °FClear.3 mph93%30.36 "Hg10 mi
1:00 am41 °FFog.3 mph87%30.36 "Hg3 mi
Weather by CustomWeather, © 2019

See weather overview